Regional Weather Roundup
Issued by NWS

Home | Current Version | Previous Version | Text Only | Print | Product List | Glossary Off
Versions: 1 2 3 4 5 6 7 8 9 10 11 12 13 14 15 16 17 18 19 20 21 22 23 24 25 26 27 28 29 30 31 32 33 34 35 36 37 38 39 40 41 42 43 44 45 46 47 48 49 50

000
ASUS43 KLMK 291502
RWRKY
KENTUCKY REGIONAL WEATHER ROUNDUP
NATIONAL WEATHER SERVICE LOUISVILLE KY
1100 AM EDT TUE JUL 29 2014

NOTE "FAIR" INDICATES FEW OR NO CLOUDS BELOW 12,000 FEET
WITH NO SIGNIFICANT WEATHER AND/OR OBSTRUCTIONS TO VISIBILITY.

KYZ001>023-026-027-061>063-070>075-291600-
WESTERN AND SOUTH CENTRAL KENTUCKY

CITY           SKY/WX    TMP DP  RH WIND       PRES   REMARKS
PADUCAH        SUNNY     73  54  51 N6        30.13S
HENDERSON      SUNNY     70  54  56 NW10      30.11S
OWENSBORO      SUNNY     69  52  54 NW12      30.12R
HOPKINSVILLE   SUNNY     72  50  46 N10       30.12S
BOWLING GREEN  SUNNY     69  50  50 N7        30.11R
GLASGOW        SUNNY     65  52  63 N3        30.11R
$$

KYZ024-025-028>034-038-045-046-053-291600-
NORTH CENTRAL KENTUCKY

CITY           SKY/WX    TMP DP  RH WIND       PRES   REMARKS
LOUISVILLE/SDF SUNNY     68  52  56 N5        30.09S
LOUISVILLE/LOU SUNNY     65  51  60 VRB6      30.10R
FORT KNOX      MOSUNNY   66  53  63 NW9       30.09S
$$

KYZ035>037-039>044-047>052-055>060-089>105-291600-
NORTHEAST KENTUCKY

CITY           SKY/WX    TMP DP  RH WIND       PRES   REMARKS
LEXINGTON      SUNNY     64  54  69 NW8       30.08R
COVINGTON      MOSUNNY   63  51  65 NW3       30.08R
FRANKFORT      MOSUNNY   63  54  72 VRB6      30.08R
$$

KYZ054-064>069-076>088-106>120-291600-
SOUTHEAST KENTUCKY

CITY           SKY/WX    TMP DP  RH WIND       PRES   REMARKS
JACKSON        PTSUNNY   62  53  72 NW5       30.07R
LONDON         MOSUNNY   65  50  58 W8        30.08R
SOMERSET       SUNNY     63  50  63 N7        30.10R
MIDDLESBORO    CLOUDY    66  55  66 CALM      30.07R
MONTICELLO     SUNNY     67  52  58 W9        30.10R
$$



USA.gov is the U.S. government's official web portal to all federal, state and local government web resources and services.